When you browse on this site, cookies collect data to enhance your experience and personalize the content and advertising you see.
Visit our Privacy Policy to learn more. By continuing to use the site, you agree to this use of cookies and data.
  • In Hungary
  • List of Countries
  • For 7 days
  • Water Temperature
  • Weather Map
  • News
  • Weather Widgets
  • user-avatar
    Login

    Hourly Weather Nizhnyaya Chegodayka

    Today, 14 October, Monday

    Time Temperature Precipitation Wind Pressure Humidity
    00:00 +6°C° 0 mm 5 mps 744 mmHg 86%
    01:00 +6°C° 0 mm 5 mps 744 mmHg 87%
    02:00 +5°C° 0 mm 6 mps 745 mmHg 88%
    03:00 +5°C° 0 mm 6 mps 745 mmHg 89%
    04:00 +5°C° 0 mm 6 mps 745 mmHg 90%
    05:00 +5°C° 0 mm 6 mps 745 mmHg 90%
    06:00 +5°C° 0 mm 6 mps 745 mmHg 90%
    07:00 +6°C° 0 mm 7 mps 746 mmHg 86%
    08:00 +6°C° 0 mm 7 mps 746 mmHg 82%
    09:00 +7°C° 0 mm 8 mps 747 mmHg 78%
    10:00 +7°C° 0 mm 8 mps 747 mmHg 77%
    11:00 +8°C° 0 mm 7 mps 748 mmHg 76%
    12:00 +8°C° 0 mm 7 mps 748 mmHg 76%
    13:00 +8°C° 0.1 mm 7 mps 748 mmHg 77%
    14:00 +8°C° 0.1 mm 7 mps 749 mmHg 78%
    15:00 +8°C° 0.1 mm 7 mps 749 mmHg 80%
    16:00 +8°C° 0 mm 7 mps 749 mmHg 81%
    17:00 +7°C° 0 mm 6 mps 749 mmHg 83%
    18:00 +7°C° 0 mm 6 mps 750 mmHg 84%
    19:00 +5°C° 0 mm 6 mps 750 mmHg 85%
    20:00 +6°C° 0 mm 5 mps 750 mmHg 86%
    21:00 +6°C° 0 mm 5 mps 750 mmHg 87%
    22:00 +5°C° 0 mm 4 mps 750 mmHg 89%
    23:00 +5°C° 0 mm 4 mps 750 mmHg 90%

    Tomorrow, 15 October, Tuesday

    Time Temperature Precipitation Wind Pressure Humidity
    00:00 +5°C° 0 mm 3 mps 750 mmHg 92%
    01:00 +5°C° 0.2 mm 3 mps 749 mmHg 92%
    02:00 +5°C° 0.2 mm 3 mps 749 mmHg 93%
    03:00 +5°C° 0.2 mm 3 mps 748 mmHg 93%
    04:00 +6°C° 0.9 mm 4 mps 747 mmHg 93%
    05:00 +6°C° 0.9 mm 5 mps 745 mmHg 94%
    06:00 +5°C° 0.9 mm 6 mps 744 mmHg 95%
    07:00 +8°C° 1.3 mm 6 mps 743 mmHg 95%
    08:00 +9°C° 1.3 mm 7 mps 743 mmHg 95%
    09:00 +11°C° 1.3 mm 7 mps 742 mmHg 95%
    10:00 +11°C° 0.9 mm 7 mps 742 mmHg 93%
    11:00 +11°C° 0.9 mm 6 mps 742 mmHg 92%
    12:00 +11°C° 0.9 mm 6 mps 742 mmHg 91%
    13:00 +11°C° 0.2 mm 6 mps 743 mmHg 87%
    14:00 +11°C° 0.2 mm 6 mps 744 mmHg 84%
    15:00 +10°C° 0.2 mm 6 mps 744 mmHg 80%
    16:00 +9°C° 0 mm 6 mps 745 mmHg 82%
    17:00 +8°C° 0 mm 6 mps 746 mmHg 84%
    18:00 +7°C° 0 mm 6 mps 747 mmHg 86%
    19:00 +5°C° 0.1 mm 6 mps 748 mmHg 86%
    20:00 +6°C° 0.1 mm 5 mps 749 mmHg 85%
    21:00 +5°C° 0.1 mm 5 mps 750 mmHg 84%
    22:00 +5°C° 0 mm 5 mps 750 mmHg 84%
    23:00 +4°C° 0 mm 4 mps 751 mmHg 85%

    Day after tomorrow, 16 October, Wednesday

    Time Temperature Precipitation Wind Pressure Humidity
    00:00 +3°C° 0 mm 4 mps 751 mmHg 85%
    01:00 +3°C° 0 mm 4 mps 752 mmHg 84%
    02:00 +1°C° 0 mm 4 mps 753 mmHg 82%
    03:00 +1°C° 0 mm 4 mps 753 mmHg 81%
    04:00 +1°C° 0 mm 4 mps 754 mmHg 84%
    05:00 +1°C° 0 mm 4 mps 754 mmHg 88%
    06:00 +1°C° 0 mm 4 mps 754 mmHg 91%
    07:00 +1°C° 0 mm 5 mps 755 mmHg 85%
    08:00 +2°C° 0 mm 5 mps 756 mmHg 80%
    09:00 +3°C° 0 mm 5 mps 756 mmHg 74%
    10:00 +3°C° 0 mm 5 mps 756 mmHg 74%
    11:00 +3°C° 0 mm 5 mps 757 mmHg 75%
    12:00 +3°C° 0 mm 5 mps 757 mmHg 75%
    13:00 +3°C° 0 mm 5 mps 757 mmHg 74%
    14:00 +2°C° 0 mm 5 mps 758 mmHg 74%
    15:00 +2°C° 0 mm 5 mps 758 mmHg 74%
    16:00 +3°C° 0 mm 4 mps 758 mmHg 74%
    17:00 +3°C° 0 mm 4 mps 758 mmHg 75%
    18:00 +2°C° 0 mm 3 mps 759 mmHg 75%
    19:00 +2°C° 0 mm 3 mps 759 mmHg 75%
    20:00 +3°C° 0 mm 2 mps 759 mmHg 76%
    21:00 +3°C° 0 mm 2 mps 760 mmHg 76%
    22:00 +4°C° 0 mm 1 mps 760 mmHg 76%
    23:00 +4°C° 0 mm 1 mps 760 mmHg 76%

    17 October, Thursday

    Time Temperature Precipitation Wind Pressure Humidity
    00:00 +4°C° 0 mm 1 mps 760 mmHg 77%
    01:00 +4°C° 0 mm 1 mps 760 mmHg 78%
    02:00 +3°C° 0 mm 1 mps 760 mmHg 80%
    03:00 +2°C° 0 mm 2 mps 760 mmHg 82%
    04:00 +2°C° 0 mm 2 mps 760 mmHg 82%
    05:00 +2°C° 0 mm 2 mps 760 mmHg 83%
    06:00 +2°C° 0 mm 2 mps 760 mmHg 84%
    07:00 +1°C° 0 mm 3 mps 759 mmHg 82%
    08:00 +1°C° 0 mm 4 mps 759 mmHg 81%
    09:00 +1°C° 0 mm 5 mps 759 mmHg 79%
    10:00 +2°C° 0 mm 5 mps 758 mmHg 76%
    11:00 +3°C° 0 mm 6 mps 758 mmHg 72%
    12:00 +4°C° 0 mm 6 mps 757 mmHg 68%
    13:00 +4°C° 0 mm 7 mps 756 mmHg 67%
    14:00 +4°C° 0 mm 7 mps 755 mmHg 65%
    15:00 +5°C° 0 mm 7 mps 754 mmHg 64%
    16:00 +4°C° 0 mm 7 mps 754 mmHg 65%
    17:00 +4°C° 0 mm 7 mps 753 mmHg 66%
    18:00 +4°C° 0 mm 7 mps 752 mmHg 67%
    19:00 +4°C° 0 mm 8 mps 751 mmHg 67%
    20:00 +4°C° 0 mm 8 mps 751 mmHg 67%
    21:00 +5°C° 0 mm 9 mps 750 mmHg 67%
    22:00 +5°C° 0.2 mm 9 mps 749 mmHg 70%
    23:00 +5°C° 0.2 mm 9 mps 749 mmHg 73%

    18 October, Friday

    Time Temperature Precipitation Wind Pressure Humidity
    00:00 +5°C° 0.2 mm 9 mps 748 mmHg 75%
    01:00 +5°C° 0.2 mm 9 mps 747 mmHg 77%
    02:00 +6°C° 0.2 mm 9 mps 747 mmHg 78%
    03:00 +6°C° 0.2 mm 8 mps 746 mmHg 80%
    04:00 +6°C° 0 mm 8 mps 746 mmHg 82%
    05:00 +7°C° 0 mm 8 mps 746 mmHg 85%
    06:00 +7°C° 0 mm 8 mps 745 mmHg 88%
    07:00 +6°C° 0.7 mm 8 mps 746 mmHg 87%
    08:00 +5°C° 0.7 mm 8 mps 746 mmHg 86%
    09:00 +4°C° 0.7 mm 8 mps 747 mmHg 85%
    10:00 +2°C° 0 mm 8 mps 748 mmHg 80%
    11:00 +1°C° 0 mm 8 mps 749 mmHg 74%
    12:00 +1°C° 0 mm 9 mps 749 mmHg 68%
    13:00 +1°C° 0 mm 8 mps 750 mmHg 68%
    14:00 0°C° 0 mm 8 mps 751 mmHg 67%
    15:00 0°C° 0 mm 8 mps 752 mmHg 67%
    16:00 0°C° 0 mm 8 mps 752 mmHg 68%
    17:00 -1°C° 0 mm 8 mps 753 mmHg 69%
    18:00 -2°C° 0 mm 8 mps 754 mmHg 70%
    19:00 -2°C° 0 mm 8 mps 754 mmHg 71%
    20:00 -2°C° 0 mm 7 mps 755 mmHg 72%
    21:00 -3°C° 0 mm 7 mps 755 mmHg 73%
    22:00 -3°C° 0 mm 7 mps 756 mmHg 73%
    23:00 -3°C° 0 mm 6 mps 756 mmHg 73%

    19 October, Saturday

    Time Temperature Precipitation Wind Pressure Humidity
    00:00 -3°C° 0 mm 6 mps 757 mmHg 73%
    01:00 -4°C° 0 mm 6 mps 757 mmHg 75%
    02:00 -4°C° 0 mm 5 mps 758 mmHg 76%
    03:00 -4°C° 0 mm 5 mps 758 mmHg 78%
    04:00 -4°C° 0 mm 4 mps 759 mmHg 79%
    05:00 -4°C° 0 mm 4 mps 759 mmHg 80%
    06:00 -4°C° 0 mm 4 mps 760 mmHg 81%
    07:00 -4°C° 0 mm 4 mps 760 mmHg 77%
    08:00 -3°C° 0 mm 4 mps 760 mmHg 74%
    09:00 -1°C° 0 mm 3 mps 761 mmHg 70%
    10:00 0°C° 0 mm 3 mps 761 mmHg 65%
    11:00 +1°C° 0 mm 3 mps 761 mmHg 59%
    12:00 +2°C° 0 mm 2 mps 761 mmHg 54%
    13:00 +3°C° 0 mm 2 mps 761 mmHg 55%
    14:00 +3°C° 0 mm 2 mps 761 mmHg 56%
    15:00 +3°C° 0 mm 2 mps 761 mmHg 57%
    16:00 +2°C° 0 mm 2 mps 761 mmHg 62%
    17:00 +1°C° 0 mm 2 mps 761 mmHg 67%
    18:00 +1°C° 0 mm 1 mps 761 mmHg 71%
    19:00 +1°C° 0 mm 1 mps 761 mmHg 72%
    20:00 +1°C° 0 mm 1 mps 761 mmHg 72%
    21:00 +1°C° 0 mm 1 mps 761 mmHg 73%
    22:00 -1°C° 0 mm 2 mps 761 mmHg 73%
    23:00 -1°C° 0 mm 2 mps 761 mmHg 72%
    Show more